CW0570 Weather Reports


time (UTC)temp
C
wind
direction
speed
KPH
gust
KPH
rain 1hr
cm
rain 24hr
cm
rain mn
cm
humidity
%
barometer
mb
20260506033050 13 332 0.0 0.0 0.00 0.00 0.00 85 1017.9
20260506031558 13 332 0.0 0.0 0.00 0.00 0.00 85 1017.8
20260506030105 13 332 0.0 4.8 0.00 0.00 0.00 84 1017.7
20260506024546 13 133 0.0 3.2 0.00 0.00 0.00 84 1017.5
20260506023043 13 133 0.0 3.2 0.00 0.00 0.00 84 1017.4
20260506021543 13 152 1.6 3.2 0.00 0.00 0.00 83 1017.2
20260506020044 14 259 1.6 6.4 0.00 0.00 0.00 81 1017.1
20260506014543 14 335 1.6 8.0 0.00 0.00 0.00 81 1017.0
20260506013046 15 15 3.2 9.7 0.00 0.00 0.00 80 1017.0
20260506011541 16 13 3.2 12.9 0.00 0.00 0.00 75 1016.9
20260506010041 17 257 3.2 8.0 0.00 0.00 0.00 74 1016.8
20260506004610 16 35 1.6 14.5 0.00 0.00 0.00 76 1016.7
20260506003039 17 244 3.2 12.9 0.00 0.00 0.00 74 1016.7
20260506001539 17 342 1.6 11.3 0.00 0.00 0.00 74 1016.7
20260506000043 17 267 6.4 12.9 0.00 0.00 0.00 73 1016.7
20260505234605 17 306 4.8 16.1 0.00 0.00 0.00 75 1016.7
20260505233036 17 246 4.8 14.5 0.00 0.00 0.00 72 1016.8
20260505231537 18 264 4.8 11.3 0.00 0.00 0.00 73 1016.8
20260505230035 18 128 3.2 14.5 0.00 0.00 0.00 74 1016.7
20260505224534 17 250 4.8 14.5 0.00 0.00 0.00 72 1016.7
20260505223037 17 182 1.6 16.1 0.00 0.00 0.00 75 1016.7
20260505221532 18 227 1.6 14.5 0.00 0.00 0.00 72 1016.5
20260505220031 18 296 4.8 14.5 0.00 0.00 0.00 71 1016.5
20260505214538 18 151 4.8 12.9 0.00 0.00 0.00 74 1016.3
20260505213030 18 227 3.2 12.9 0.00 0.00 0.00 74 1016.1
20260505211530 18 246 3.2 12.9 0.00 0.00 0.00 72 1016.1
20260505210030 19 128 3.2 12.9 0.00 0.00 0.00 70 1016.2
20260505204529 19 252 4.8 11.3 0.00 0.00 0.00 72 1016.1
20260505203026 18 280 1.6 14.5 0.00 0.00 0.00 72 1016.1
20260505201528 18 253 1.6 6.4 0.00 0.00 0.00 71 1016.2
20260505200025 17 229 1.6 6.4 0.00 0.00 0.00 72 1016.3
20260505194519 17 355 0.0 4.8 0.00 0.00 0.00 74 1016.5
20260505193016 17 333 1.6 6.4 0.00 0.00 0.00 72 1016.6
20260505191517 17 259 1.6 6.4 0.00 0.00 0.00 76 1016.9
20260505190013 16 317 4.8 12.9 0.00 0.00 0.00 78 1017.0
20260505184513 15 338 3.2 8.0 0.00 0.00 0.00 81 1017.1
20260505183010 14 317 1.6 4.8 0.00 0.00 0.00 82 1017.3
20260505181502 13 355 0.0 4.8 0.00 0.00 0.00 81 1017.3
20260505174558 13 267 0.0 3.2 0.00 0.00 0.00 83 1017.2
20260505173055 13 267 0.0 3.2 0.00 0.00 0.00 84 1017.1
20260505171553 12 271 0.0 3.2 0.00 0.00 0.00 86 1017.1
20260505170051 12 258 1.6 4.8 0.00 0.00 0.00 86 1017.1
20260505164551 12 36 0.0 1.6 0.00 0.00 0.00 87 1017.1
20260505163046 12 36 0.0 3.2 0.00 0.00 0.00 88 1017.1
20260505161544 12 36 0.0 3.2 0.00 0.00 0.00 91 1017.2
20260505153045 11 125 0.0 0.0 0.00 0.03 0.00 95 1017.1
20260505151637 11 125 0.0 0.0 0.00 0.03 0.00 96 1017.0
20260505124530 10 125 0.0 0.0 0.00 0.03 0.00 96 1016.3
20260505123030 10 125 0.0 0.0 0.00 0.03 0.00 96 1016.2
20260505121529 10 125 0.0 0.0 0.00 0.03 0.00 97 1016.1
20260505120027 10 125 0.0 0.0 0.00 0.03 0.00 96 1016.0
20260505114526 10 125 0.0 0.0 0.00 0.05 0.00 96 1016.0
20260505113030 10 125 0.0 0.0 0.00 0.05 0.00 96 1016.1
20260505111525 10 125 0.0 0.0 0.00 0.05 0.00 96 1016.1
20260505101526 10 125 0.0 0.0 0.00 0.08 0.00 96 1016.1
20260505100019 10 125 0.0 0.0 0.00 0.08 0.00 96 1016.1
20260505094525 10 125 0.0 0.0 0.00 0.08 0.00 96 1016.2
20260505093017 10 125 0.0 0.0 0.00 0.08 0.00 96 1016.2
20260505091514 10 125 0.0 0.0 0.00 0.08 0.00 96 1016.4
20260505090013 10 125 0.0 0.0 0.00 0.08 0.00 96 1016.5
20260505084517 10 125 0.0 0.0 0.00 0.08 0.00 96 1016.5
20260505083011 10 125 0.0 0.0 0.00 0.08 0.00 95 1016.6
20260505081510 10 125 0.0 0.0 0.00 0.08 0.00 95 1016.7
20260505080008 11 125 0.0 0.0 0.00 0.08 0.00 95 1016.7
20260505074507 11 125 0.0 0.0 0.00 0.08 0.00 95 1016.8
20260505073005 11 125 0.0 0.0 0.00 0.08 0.00 95 1016.8
20260505071505 11 125 0.0 0.0 0.00 0.08 0.00 95 1016.8
20260505070003 11 125 0.0 0.0 0.00 0.08 0.00 95 1016.8
20260505064502 11 125 0.0 0.0 0.00 0.08 0.08 95 1016.7
20260505063002 11 125 0.0 0.0 0.00 0.08 0.08 95 1016.8
20260505061502 11 125 0.0 0.0 0.00 0.08 0.08 94 1016.9
20260505060100 11 125 0.0 0.0 0.00 0.08 0.08 94 1016.9
20260505054611 11 125 0.0 0.0 0.00 0.08 0.08 94 1017.0
20260505053102 11 125 0.0 3.2 0.00 0.08 0.08 94 1017.1
20260505051559 11 125 0.0 0.0 0.00 0.08 0.08 93 1017.0
20260505041600 11 125 0.0 0.0 0.00 0.08 0.08 92 1016.6
20260505040057 11 125 0.0 3.2 0.00 0.08 0.08 90 1016.5
20260505034555 11 127 0.0 3.2 0.00 0.08 0.08 90 1016.2